Temperature
21 21 21 21 21 21 21 22 22 22 22 22 22 21 21 20 19 18 18 17 17 16 16 16 16 16 16 16 16 16 16 16 16 16 16 15 15 15 15 15 15 15 15 15
21 21 21 21 21 21 21 21 22 22 22 22 21 21 20 20 19 18 17 17 17 16 16 16 16 16 16 16 16 16 15 16 16 16 15 15 15 15 15 15 15 15 14 14
21 20 20 20 21 21 21 21 22 21 22 22 21 20 20 19 19 18 17 17 17 16 16 16 16 16 16 15 15 15 15 15 15 15 15 15 15 15 15 15 15 15 14 14
20 20 19 22 21 21 21 21 22 22 22 21 20 20 19 19 18 18 17 17 16 16 16 16 16 16 15 15 15 15 15 15 15 15 15 15 15 15 15 14 14 14 14 14
20 20 20 21 20 20 21 21 21 21 21 20 19 19 19 18 17 17 17 17 16 16 16 16 16 15 15 15 15 15 15 15 15 15 15 15 15 15 15 14 14 14 14 14
19 19 20 21 21 20 20 21 21 21 20 19 19 21 21 18 17 17 17 16 16 16 16 16 15 15 15 15 15 15 15 15 15 15 15 15 15 15 14 14 14 14 14 14
19 19 20 21 19 19 20 21 20 20 19 19 19 20 19 17 17 17 17 16 16 16 15 15 15 15 15 15 15 15 15 15 15 15 15 15 15 14 14 14 14 14 14 13
19 19 20 19 19 20 21 20 19 19 18 18 18 18 17 17 17 16 16 16 16 15 15 15 15 15 15 15 15 15 15 15 15 15 15 14 14 14 14 14 14 14 13 13
20 20 20 19 19 19 18 19 19 18 17 17 17 17 16 16 16 16 16 16 16 15 15 15 15 15 15 15 15 15 15 15 14 14 14 14 14 14 14 14 14 13 13 13
19 19 19 18 18 17 17 17 17 17 17 16 16 16 16 16 16 16 16 16 15 15 15 15 14 14 14 14 14 14 14 14 14 14 14 14 14 14 14 14 13 13 13 13
19 19 18 17 17 17 17 17 16 16 16 16 16 16 16 16 16 16 15 15 15 15 15 14 14 14 14 14 14 14 14 14 14 14 14 14 14 14 14 14 13 13 13 13
19 19 19 19 17 17 16 16 16 16 16 16 16 15 15 15 15 15 15 15 15 14 14 14 14 14 14 14 14 14 14 14 14 14 14 14 14 14 14 13 13 13 13 12
17 16 16 16 16 16 16 16 15 15 15 15 15 15 15 15 15 15 15 15 14 14 14 14 14 14 14 14 13 13 13 13 14 13 13 14 13 13 13 13 13 12 12 12
15 15 15 15 15 15 15 15 15 15 15 15 15 15 15 15 15 14 14 14 14 14 14 13 13 13 13 13 13 13 13 13 13 13 13 13 13 13 12 12 12 12 12 12
14 14 14 14 14 15 14 14 14 14 14 14 14 14 14 14 14 14 14 14 14 13 13 13 13 13 13 13 13 13 13 13 13 13 13 12 12 12 12 12 11 11 11 11
13 13 13 13 14 14 14 14 14 14 14 14 14 14 14 14 14 14 14 14 13 13 13 13 13 13 13 13 13 13 12 12 12 12 12 12 12 11 11 11 11 11 11 11
13 13 13 13 13 13 14 14 13 13 13 13 13 13 13 13 13 13 13 13 13 13 13 13 13 12 12 12 12 12 12 12 12 12 11 11 11 11 11 11 11 11 11 11
12 12 13 13 13 13 13 13 13 13 13 13 13 13 13 13 13 13 13 12 12 12 12 12 12 12 12 12 12 11 11 11 11 11 11 11 11 11 11 10 10 10 10 10
11 11 12 12 12 12 12 12 12 13 12 12 12 12 12 12 12 12 12 12 12 12 12 12 12 11 11 11 11 11 11 11 11 11 10 10 10 10 10 10 10 10 10 9
11 11 11 11 11 11 11 12 12 12 12 12 12 11 11 11 11 11 11 11 11 11 12 11 11 11 11 11 11 10 10 10 10 10 10 10 10 10 9 9 9 9 9 9
10 10 11 11 11 11 11 11 11 11 11 11 11 11 11 11 11 11 11 11 11 11 11 11 11 10 10 10 10 10 10 10 10 10 9 9 9 9 9 9 9 8 8 8
10 10 10 10 10 10 10 10 11 11 11 11 10 10 10 10 10 10 10 10 10 10 10 10 10 10 10 10 10 10 9 9 9 9 9 9 9 9 9 8 8 8 8 8
9 9 9 9 9 10 10 10 10 10 10 10 10 10 10 10 10 10 10 10 10 10 9 10 10 10 10 9 9 9 9 9 9 9 9 9 8 8 8 8 8 7 7 7
8 8 9 9 9 9 9 9 9 9 9 9 9 9 9 9 9 9 9 9 9 9 9 9 9 9 9 9 9 9 8 8 8 8 8 8 8 8 8 7 7 7 7 7
8 8 8 8 8 8 8 8 9 8 8 8 8 8 8 8 8 8 8 8 8 8 8 8 8 8 8 8 8 8 8 8 8 8 7 7 7 7 7 7 7 7 6 6
7 7 7 7 7 7 7 7 7 7 8 8 8 7 8 8 7 7 7 7 7 8 7 7 7 7 7 7 7 7 7 7 7 7 7 7 7 7 7 7 6 6 6 6
6 6 6 6 7 7 7 7 6 6 7 7 7 7 7 7 7 7 7 7 7 7 7 7 7 7 6 7 7 7 7 6 7 6 6 6 6 6 6 6 6 6 6 5
Wind_Speed
5 4 5 7 7 8 10 10 9 8 8 6 4 4 3 3 2 2 2 3 4 4 4 4 4 4 4 4 5 6 6 7 7 6 5 5 5 4 4 4 4 4 3 3
7 6 6 9 9 10 10 9 10 10 9 5 4 4 3 3 3 3 3 4 4 4 4 4 5 4 4 4 5 6 7 7 6 6 6 6 5 5 5 4 4 4 4 3
7 6 7 10 10 11 10 9 10 10 8 4 5 5 5 4 4 4 4 4 4 4 4 5 5 5 5 5 5 6 6 6 6 7 7 6 6 6 5 5 5 4 4 4
6 7 10 3 1 5 8 9 9 8 6 5 6 5 5 4 4 4 4 4 4 4 4 4 4 4 5 4 5 5 6 6 6 7 7 6 6 6 6 5 5 5 4 4
6 8 8 5 5 6 7 8 7 7 6 4 4 5 5 3 4 4 4 4 4 4 4 4 4 4 5 5 5 5 5 6 6 7 7 7 7 7 6 5 5 5 4 4
7 8 7 4 4 4 5 7 4 5 4 3 3 5 3 2 3 4 3 3 2 3 3 3 3 4 5 5 5 5 6 6 6 7 7 7 7 7 6 6 5 5 4 4
11 10 7 3 4 5 7 2 2 3 4 5 5 4 3 2 3 3 3 3 2 3 3 3 3 4 5 6 6 6 5 5 6 7 7 7 6 6 6 6 5 5 5 4
10 10 8 6 6 7 3 1 1 3 4 5 5 3 3 3 2 3 3 3 3 3 3 3 3 4 5 5 6 5 5 5 6 6 6 6 6 6 6 6 6 5 5 4
8 7 2 7 7 3 2 4 3 4 4 4 4 4 4 3 3 3 3 3 3 3 3 3 4 4 5 5 5 5 5 6 6 6 6 6 7 7 6 6 5 5 5 4
9 9 7 8 8 6 5 5 4 4 5 5 5 4 4 3 3 3 3 4 4 4 4 4 4 4 5 4 4 5 6 6 6 6 5 5 5 5 6 6 5 5 5 5
12 10 8 9 10 8 6 6 5 5 5 5 5 5 4 4 4 3 3 4 4 4 4 4 4 4 4 4 4 5 5 5 5 5 5 5 5 4 6 5 5 5 5 5
11 9 9 8 7 7 7 6 6 6 6 5 5 5 5 4 4 4 4 4 5 5 5 5 5 4 4 4 5 5 5 5 4 4 4 5 5 4 2 2 4 4 2 3
10 8 8 7 7 7 8 8 7 7 7 6 6 5 5 5 5 5 5 5 6 6 6 5 5 4 4 4 5 6 5 5 4 4 5 5 5 5 4 3 3 3 4 4
9 7 8 8 7 7 7 7 7 7 7 7 6 6 5 5 5 5 5 5 5 5 5 5 5 5 4 5 5 6 5 4 4 4 4 5 5 5 5 5 4 3 3 5
10 9 9 7 7 7 7 7 7 7 7 7 6 6 6 6 5 5 4 4 5 5 5 4 5 4 4 5 6 6 5 4 4 4 4 4 5 5 5 5 4 4 3 4
9 8 8 8 8 7 8 9 9 8 7 7 6 6 6 5 5 4 4 4 5 5 4 4 4 4 4 5 5 5 5 4 4 4 5 5 5 5 5 5 5 4 4 3
8 8 8 9 8 8 9 9 8 8 7 7 6 5 5 4 4 4 3 3 4 4 4 4 4 3 4 4 4 4 4 4 5 5 5 5 5 5 5 5 5 4 4 4
9 9 8 8 8 8 7 7 7 7 6 5 5 5 5 5 5 4 3 3 3 3 4 4 3 3 4 4 4 4 4 4 5 5 4 4 5 5 5 5 5 5 4 4
7 7 7 7 7 6 6 6 5 5 4 4 5 5 5 5 5 4 4 3 4 4 4 3 3 4 4 4 3 4 4 5 5 5 4 4 4 4 4 5 5 5 4 4
4 4 5 4 4 5 4 4 4 4 4 4 5 5 5 4 4 4 4 4 4 3 3 3 4 4 4 4 4 4 5 5 5 4 4 4 4 4 4 4 4 4 4 4
3 3 3 3 3 3 4 4 4 4 4 4 5 5 5 4 4 4 4 4 3 3 3 3 3 3 3 3 4 4 5 5 5 5 4 4 5 5 5 5 5 5 4 4
3 3 3 3 3 3 3 3 4 4 4 4 5 5 4 4 4 4 4 3 3 2 3 3 3 3 3 4 4 4 4 5 5 5 5 5 5 5 5 5 5 5 4 4
3 3 4 4 4 4 4 4 4 4 5 5 5 5 5 5 4 4 4 3 3 3 3 3 3 4 5 4 4 4 5 5 5 5 5 5 5 5 5 5 5 5 5 4
4 4 5 5 5 5 5 5 4 4 5 5 5 5 5 4 3 3 3 3 3 3 3 3 4 4 5 4 4 4 4 4 4 4 4 4 4 5 5 5 5 5 5 5
4 4 5 5 5 4 5 4 4 4 4 3 3 3 3 3 3 3 3 3 3 3 2 3 4 4 4 4 4 4 4 4 4 4 4 4 4 5 5 5 5 5 5 5
3 3 4 5 4 4 3 3 3 3 3 3 2 2 2 2 2 2 2 3 3 3 3 2 3 3 3 3 3 4 4 4 5 5 5 5 5 5 5 5 6 5 5 5
3 3 3 3 3 3 3 3 3 3 3 3 3 2 2 2 2 2 2 2 2 2 2 2 2 3 3 3 3 3 3 4 4 4 5 5 5 5 5 6 5 5 5 5
Wind_Direction
255 263 252 252 245 235 241 254 262 268 268 273 264 259 253 241 227 224 221 217 216 219 218 217 222 221 219 216 208 203 201 204 203 198 193 193 190 193 190 189 192 190 192 197
239 239 250 254 248 242 243 250 255 262 264 275 271 254 250 236 230 236 233 232 225 221 220 222 223 222 219 214 208 204 204 205 203 202 197 195 196 194 191 190 191 187 193 195
244 242 253 250 242 235 236 238 246 255 262 258 249 241 245 236 234 239 238 235 228 225 223 226 226 221 217 216 205 203 206 203 202 202 199 198 196 193 190 188 187 188 193 193
246 238 246 250 197 233 241 245 245 253 264 254 255 253 247 241 245 245 245 240 237 235 232 234 230 222 216 209 205 204 205 203 203 201 199 197 194 194 196 192 184 188 190 194
238 247 258 246 221 221 235 248 239 240 247 255 257 247 231 233 245 245 240 237 232 234 234 235 230 221 212 209 208 206 206 207 203 201 201 199 197 196 195 191 185 184 188 189
234 247 252 234 172 196 241 248 214 225 232 235 227 243 239 247 249 239 241 233 231 232 230 226 225 219 213 213 214 215 216 213 207 203 202 202 202 198 192 188 187 184 183 188
235 246 254 225 170 185 228 250 149 219 231 221 232 270 281 258 253 234 227 225 224 224 221 221 222 218 221 220 222 225 222 214 207 203 202 201 198 193 187 185 182 183 182 187
226 237 241 169 182 213 258 25 231 244 243 242 255 271 263 253 246 233 221 217 218 224 226 216 213 217 227 232 230 225 218 209 207 203 196 191 188 188 187 185 184 186 187 188
226 239 242 190 211 229 277 269 264 260 257 252 258 258 258 261 256 238 224 217 217 224 229 220 216 219 228 239 233 222 214 209 204 198 192 188 186 183 183 186 191 194 194 197
238 241 236 230 234 235 243 255 265 262 252 245 251 254 254 257 256 243 231 221 216 216 222 225 225 224 230 233 230 219 212 208 200 191 188 188 189 190 188 190 194 197 198 201
243 245 243 236 229 233 239 248 256 256 250 246 249 255 255 257 259 249 236 225 218 220 224 227 226 231 232 228 221 218 210 203 198 190 183 184 185 192 194 195 196 199 201 199
248 245 244 248 239 234 237 245 246 245 246 246 244 248 253 259 260 250 240 228 221 223 227 230 227 228 225 220 218 217 210 203 197 191 184 180 176 170 127 170 142 164 185 195
262 268 264 266 248 240 244 245 244 244 244 247 247 247 251 256 253 247 240 230 222 222 226 229 229 229 228 220 212 213 209 203 199 195 190 186 181 182 177 155 136 160 172 171
254 254 253 248 245 243 243 242 242 244 249 251 251 251 250 252 249 246 243 235 228 224 225 226 227 231 231 219 214 210 207 201 199 197 195 193 190 190 191 184 177 180 173 168
243 247 253 255 250 247 242 236 234 239 245 247 246 242 238 239 244 247 245 240 230 223 224 224 228 231 228 217 216 214 207 203 198 195 194 197 195 192 192 191 186 178 170 163
246 247 246 243 245 245 241 238 237 241 244 245 242 238 235 235 239 241 238 233 227 224 223 224 229 230 223 220 217 213 207 191 189 192 193 194 196 193 190 189 190 186 181 180
237 239 238 240 244 245 243 243 240 240 242 241 239 237 230 228 228 233 237 237 238 235 229 228 233 229 222 220 216 209 202 188 182 195 199 197 194 193 195 193 194 194 189 178
240 245 244 245 247 247 245 242 239 238 238 236 228 223 223 227 233 236 239 239 239 239 240 236 230 226 223 223 219 209 201 197 197 200 200 200 198 194 194 196 196 195 188 174
239 245 246 246 246 242 240 241 240 237 231 223 220 223 227 231 231 230 231 235 238 240 242 228 210 217 220 216 213 204 200 198 198 197 196 189 197 200 197 198 199 198 192 188
231 235 238 242 242 236 234 237 236 231 228 223 223 226 228 229 228 230 232 236 242 250 246 228 212 215 217 206 197 202 199 198 197 195 195 199 202 203 204 203 203 201 201 203
238 241 244 244 242 238 231 230 229 229 225 220 223 228 232 233 233 232 234 246 252 241 232 219 216 214 212 206 201 206 200 196 195 197 199 202 204 206 208 207 206 205 207 209
255 251 252 253 250 248 243 235 231 230 226 222 226 229 230 233 238 243 243 244 248 235 228 221 219 205 205 204 209 209 205 202 201 201 205 207 208 208 210 211 211 209 208 210
264 255 253 255 255 257 255 247 239 235 233 230 229 230 234 240 240 240 247 243 232 226 229 224 214 199 206 210 210 208 207 207 207 206 208 209 210 212 213 213 212 211 210 208
281 273 266 262 259 255 253 252 248 244 241 241 238 236 237 240 248 252 254 224 226 229 233 208 194 201 209 215 213 210 209 211 211 211 210 212 214 214 214 212 211 211 210 209
279 276 272 265 258 258 260 259 254 247 242 241 241 238 238 238 243 246 239 221 207 217 229 208 202 209 211 214 215 217 217 217 216 214 214 215 216 215 213 212 212 213 212 213
283 278 278 272 270 267 260 251 248 246 241 238 240 240 243 238 234 236 233 225 220 222 230 225 215 215 219 217 218 222 222 217 217 218 217 216 218 217 215 213 215 217 218 216
285 282 277 274 269 265 256 248 246 247 243 239 244 246 239 236 231 230 229 226 225 228 232 232 229 227 226 225 224 225 225 221 215 215 219 221 220 219 215 215 216 215 212 211
Height
1536 1537 1538 1538 1538 1538 1538 1535 1536 1533 1534 1533 1534 1536 1538 1539 1540 1541 1541 1542 1542 1542 1543 1543 1544 1544 1545 1545 1546 1548 1549 1550 1552 1553 1555 1555 1556 1557 1558 1559 1559 1560 1561 1561
1538 1538 1537 1537 1535 1535 1535 1534 1533 1533 1533 1531 1534 1535 1536 1537 1538 1539 1539 1539 1540 1540 1541 1541 1541 1542 1542 1543 1544 1545 1546 1548 1549 1551 1552 1553 1554 1555 1556 1556 1557 1558 1559 1559
1537 1536 1537 1536 1530 1531 1531 1530 1530 1530 1529 1530 1532 1533 1534 1535 1536 1536 1537 1537 1537 1538 1538 1539 1539 1540 1540 1540 1541 1542 1544 1545 1546 1548 1549 1550 1551 1552 1553 1554 1555 1556 1557 1557
1536 1538 1543 1527 1525 1527 1527 1527 1526 1526 1527 1529 1530 1531 1532 1533 1534 1534 1535 1535 1535 1535 1536 1537 1537 1537 1538 1538 1539 1540 1541 1542 1543 1545 1546 1547 1549 1550 1551 1552 1553 1554 1554 1555
1535 1535 1530 1526 1525 1526 1526 1524 1524 1525 1526 1528 1529 1529 1530 1531 1531 1532 1532 1532 1533 1533 1534 1534 1535 1535 1535 1536 1536 1537 1538 1539 1540 1541 1543 1544 1546 1547 1548 1549 1550 1551 1552 1553
1534 1536 1533 1523 1522 1525 1526 1524 1522 1523 1524 1526 1527 1525 1525 1528 1529 1529 1530 1530 1530 1531 1531 1532 1532 1532 1533 1533 1534 1534 1534 1536 1537 1538 1540 1541 1543 1544 1545 1546 1547 1549 1549 1550
1530 1530 1522 1518 1522 1525 1528 1521 1521 1522 1523 1524 1524 1524 1525 1526 1526 1526 1527 1527 1528 1528 1529 1529 1529 1529 1530 1530 1531 1531 1532 1533 1534 1535 1537 1538 1540 1541 1542 1544 1545 1545 1546 1547
1525 1528 1523 1518 1520 1520 1518 1518 1520 1521 1522 1522 1523 1523 1523 1523 1524 1524 1524 1524 1525 1525 1526 1526 1526 1526 1526 1527 1528 1529 1529 1530 1531 1532 1534 1535 1536 1538 1539 1541 1542 1543 1543 1544
1516 1516 1514 1515 1516 1517 1518 1518 1519 1519 1520 1521 1521 1521 1521 1521 1521 1521 1522 1522 1522 1522 1523 1523 1523 1523 1523 1524 1525 1525 1526 1527 1528 1529 1531 1532 1533 1535 1536 1537 1538 1539 1540 1541
1513 1511 1513 1514 1515 1515 1516 1517 1517 1518 1518 1518 1518 1518 1518 1518 1518 1519 1519 1519 1519 1519 1520 1520 1520 1520 1520 1521 1521 1522 1523 1524 1525 1526 1527 1529 1530 1531 1532 1534 1534 1535 1536 1537
1508 1508 1511 1510 1511 1512 1513 1514 1514 1515 1515 1515 1516 1516 1516 1516 1516 1516 1516 1516 1516 1516 1516 1516 1516 1517 1517 1518 1518 1519 1520 1521 1522 1522 1524 1525 1526 1527 1529 1530 1531 1532 1532 1533
1504 1505 1506 1506 1507 1509 1509 1510 1510 1511 1511 1512 1512 1512 1513 1513 1513 1512 1513 1513 1513 1513 1513 1513 1513 1514 1514 1514 1515 1516 1516 1517 1518 1519 1520 1521 1522 1523 1525 1526 1527 1528 1529 1530
1503 1503 1504 1503 1504 1505 1506 1506 1507 1508 1508 1508 1509 1509 1509 1509 1509 1509 1509 1509 1509 1509 1509 1509 1510 1510 1511 1511 1511 1512 1513 1513 1514 1516 1516 1517 1518 1519 1520 1522 1523 1524 1525 1526
1500 1501 1501 1501 1500 1501 1501 1502 1503 1504 1504 1505 1505 1505 1505 1505 1505 1505 1505 1505 1505 1505 1505 1506 1506 1506 1507 1507 1508 1508 1509 1510 1511 1512 1513 1514 1515 1516 1517 1518 1519 1519 1521 1522
1496 1497 1497 1496 1496 1496 1497 1498 1498 1499 1500 1500 1501 1501 1501 1501 1501 1501 1501 1501 1501 1501 1502 1502 1502 1502 1503 1503 1504 1505 1505 1506 1507 1508 1509 1510 1511 1512 1513 1514 1515 1516 1516 1518
1491 1492 1492 1492 1492 1491 1492 1493 1493 1494 1495 1495 1496 1496 1497 1497 1497 1497 1497 1498 1498 1497 1497 1498 1498 1499 1500 1500 1500 1500 1501 1502 1503 1504 1505 1506 1507 1508 1509 1510 1511 1512 1512 1514
1487 1486 1487 1487 1487 1487 1487 1488 1489 1490 1490 1491 1491 1492 1492 1493 1493 1493 1494 1494 1494 1494 1494 1494 1494 1495 1496 1496 1496 1497 1497 1498 1499 1500 1501 1502 1503 1504 1505 1506 1507 1508 1509 1510
1481 1482 1482 1483 1483 1483 1483 1484 1485 1485 1486 1486 1487 1488 1488 1489 1489 1489 1490 1490 1490 1490 1490 1490 1491 1491 1492 1492 1492 1493 1494 1494 1495 1496 1497 1498 1499 1500 1501 1502 1503 1504 1505 1506
1476 1477 1478 1478 1478 1479 1479 1480 1481 1481 1482 1482 1483 1484 1484 1485 1485 1486 1486 1486 1486 1486 1486 1487 1487 1487 1488 1488 1489 1489 1490 1491 1492 1493 1493 1494 1495 1496 1497 1498 1499 1500 1501 1502
1472 1473 1474 1474 1474 1475 1476 1476 1477 1478 1478 1479 1479 1480 1480 1481 1482 1482 1482 1482 1482 1482 1483 1483 1483 1484 1484 1485 1485 1486 1487 1487 1488 1489 1490 1491 1491 1492 1493 1494 1495 1496 1497 1497
1469 1470 1470 1471 1471 1472 1473 1473 1474 1474 1475 1475 1476 1476 1477 1477 1478 1478 1478 1478 1478 1479 1479 1479 1479 1480 1480 1481 1481 1482 1483 1483 1484 1485 1486 1487 1488 1488 1489 1490 1491 1491 1492 1493
1466 1467 1467 1468 1468 1469 1469 1470 1470 1471 1471 1471 1472 1473 1473 1473 1474 1474 1474 1474 1474 1474 1475 1475 1475 1476 1476 1477 1477 1478 1479 1479 1480 1481 1482 1483 1484 1484 1485 1486 1486 1487 1488 1488
1464 1464 1465 1465 1465 1466 1466 1466 1467 1467 1467 1467 1468 1468 1469 1469 1469 1469 1469 1470 1470 1470 1470 1470 1471 1471 1472 1473 1473 1474 1475 1476 1476 1477 1478 1479 1480 1480 1481 1481 1482 1483 1483 1484
1461 1461 1462 1462 1462 1462 1462 1462 1462 1463 1463 1464 1464 1464 1465 1465 1465 1465 1465 1465 1465 1466 1466 1466 1466 1467 1468 1468 1469 1470 1471 1472 1472 1473 1474 1475 1475 1476 1477 1477 1478 1478 1479 1479
1459 1458 1458 1458 1458 1458 1458 1458 1458 1458 1459 1459 1459 1460 1460 1460 1461 1461 1461 1461 1461 1462 1462 1462 1462 1463 1463 1464 1465 1465 1466 1467 1468 1469 1470 1470 1471 1472 1472 1473 1473 1474 1474 1475
1455 1455 1455 1455 1454 1454 1454 1454 1454 1454 1454 1454 1455 1455 1455 1456 1456 1456 1457 1457 1457 1458 1458 1458 1458 1459 1459 1459 1460 1461 1461 1462 1463 1464 1465 1466 1466 1467 1467 1468 1468 1469 1469 1470
1452 1452 1451 1451 1450 1450 1450 1450 1450 1450 1450 1450 1450 1451 1451 1452 1452 1452 1452 1453 1453 1454 1454 1454 1454 1455 1455 1455 1456 1456 1457 1457 1458 1459 1460 1461 1461 1462 1462 1463 1463 1464 1464 1465